Preview of NWS' New Version of Forecast
This preview is not operational and should not be used for support decisions.

Regional Weather Roundup (RWR)

Issued by Raleigh, NC (RAH)

                            
514 
ASUS42 KRAH 212310
RWRRAH
NORTH CAROLINA WEATHER ROUNDUP
NATIONAL WEATHER SERVICE RALEIGH NC
700 PM EDT THU JUN 21 2018

NOTE: "FAIR" INDICATES FEW OR NO CLOUDS BELOW 12,000 FEET WITH NO
SIGNIFICANT WEATHER AND/OR OBSTRUCTIONS TO VISIBILITY.

NCZ001-053-055-056-065-067-220000-
WESTERN NORTH CAROLINA
  
CITY           SKY/WX    TMP DP  RH WIND       PRES   REMARKS
ASHEVILLE      CLOUDY    76  67  73 N16       29.88R                  
JEFFERSON      CLOUDY    69  65  89 W10       29.91S                  
MORGANTON      CLOUDY    81  72  74 NW6       29.85R                  
HICKORY        PTSUNNY   83  69  62 S9        29.80R                  
RUTHERFORDTON  FAIR      84  72  67 SW7       29.80F                  
MOUNT AIRY     FAIR      83  72  69 SE3       29.81S                  
BOONE          CLOUDY    69  62  78 CALM      29.93S                  
$$
 
NCZ021-022-025-041-071-084-088-220000-
CENTRAL NORTH CAROLINA
  
CITY           SKY/WX    TMP DP  RH WIND       PRES   REMARKS
CHARLOTTE      PTSUNNY   88  70  55 SW6       29.79R                  
GREENSBORO     PTSUNNY   86  68  54 SW8       29.77S                  
WINSTON-SALEM  PTSUNNY   86  68  54 W6        29.79S                  
RALEIGH-DURHAM PTSUNNY   87  73  62 W3        29.76S                  
FORT BRAGG     FAIR      92  70  48 SW6       29.73S HX  98           
FAYETTEVILLE   PTSUNNY   92  71  50 SW8       29.74R HX  98           
BURLINGTON     FAIR      88  69  53 SW5       29.75S                  
LAURINBURG     FAIR      93  72  50 CALM      29.75S HX 101           
$$
 
NCZ011-015-027-028-043-044-047-080-103-220000-
NORTHEASTERN NORTH CAROLINA
  
CITY           SKY/WX    TMP DP  RH WIND       PRES   REMARKS
ROCKY MT-WILSO FAIR      88  72  58 W5        29.74R                  
GREENVILLE     FAIR      91  68  46 NW3       29.76R HX  95           
WASHINGTON     PTSUNNY   90  73  58 SW7       29.73R HX  98           
ELIZABETH CITY FAIR      83  76  79 E8        29.74F                  
MANTEO         FAIR      83  75  77 E5        29.75S                  
CAPE HATTERAS  FAIR      84  80  88 SW12G20   29.76R HX  97           
$$
 
NCZ078-087-090-091-093-098-101-220000-
SOUTHEASTERN NORTH CAROLINA
  
CITY           SKY/WX    TMP DP  RH WIND       PRES   REMARKS
LUMBERTON      FAIR      92  72  51 SW7       29.74S HX  99           
GOLDSBORO      FAIR      94  71  47 W7        29.72S HX 101           
KINSTON        MOSUNNY   91  73  55 SW5       29.74S HX 100           
KENANSVILLE    PTSUNNY   88  77  70 CALM      29.74S HX 100           
NEW BERN       FAIR      85  79  82 SE8       29.75R HX  98           
CHERRY POINT   PTSUNNY   78  75  90 SW9       29.78R THUNDER          
BEAUFORT       CLOUDY    82  80  94 W6        29.78R                  
JACKSONVILLE   FAIR      88  78  72 S9        29.75R HX 101           
WILMINGTON     FAIR      89  77  67 S9        29.76R HX 101           
$$